• MPC Preparation (Info)

  • MPEC 2005-S34 : 2004 KK17

    The following Minor Planet Electronic Circular may be linked-to from your own Web pages, but must not otherwise be redistributed electronically.

    A form allowing access to any MPEC is at the bottom of this page.


    Read MPEC 2005-S33 Read MPEC 2005-S35


    M.P.E.C. 2005-S34                                Issued 2005 Sept. 24, 02:50 UT
    
         The Minor Planet Electronic Circulars contain information on unusual
             minor planets and routine data on comets.  They are published
       on behalf of Commission 20 of the International Astronomical Union by the
              Minor Planet Center, Smithsonian Astrophysical Observatory,
                              Cambridge, MA 02138, U.S.A.
    
                      Supported in part by the Brinson Foundation
                 Prepared using the Tamkin Foundation Computer Network
    
                                  MPC@CFA.HARVARD.EDU
              URL http://cfa-www.harvard.edu/iau/mpc.html  ISSN 1523-6714
    
                                       2004 KK17
    
                               Revision to MPEC 2004-K78
    
    Additional Observations:
         K04K17K 1C2005 09 22.76883 06 08 46.00 -48 19 59.5          20.3 R ES034413
         K04K17K 1C2005 09 22.77922 06 08 48.16 -48 20 09.5          20.9 R ES034413
         K04K17K 1C2005 09 23.77508 06 12 18.30 -48 36 05.2          20.6 R ES034413
    
    Observer details:
    413 Siding Spring.  Observer R. H. McNaught.  1.0-m f/8 reflector + CCD.
    
    First and last observations above in comparison with prediction:
    Residuals in seconds of arc (or two decimals in degrees), reference and Delta-T
    050922 413 0.09+ 0.11+    050923 413 0.09+ 0.12+    MPO 66383   -0.18 day
    
    Orbital elements:
    2004 KK17
    Epoch 2005 Aug. 18.0 TT = JDT 2453600.5                 MPC
    M 289.77398              (2000.0)            P               Q
    n   0.55469892     Peri.   31.47115     -0.58198702     -0.49589282
    a   1.4670036      Node   103.73834     +0.53724210     -0.82942614
    e   0.5751028      Incl.   41.56604     +0.61046051     +0.25718201
    P   1.78           H   18.5           G   0.15           U   4
    Residuals in seconds of arc
    040530 704  0.0   0.5+    040603 649  0.1+  0.2-    040612 926  0.2+  0.1-
    040530 704  0.0   0.2-    040603 673  0.8-  1.1-    040612 926  0.4-  0.1+
    040530 704  0.7+  1.4+    040603 673  0.2+  0.1-    040612 926  0.1-  0.9-
    040530 704  0.7-  0.1+    040603 673  1.0+  0.8+    040614 926  0.3+  0.1-
    040530 704  0.3+  0.5+    040603 926  1.5+  0.3+    040614 926  0.4+  0.4+
    040530 J95 (0.2-  2.9-)   040603 926  0.1-  0.7+    040614 926  0.3+  0.0
    040530 J95  0.1+  0.3-    040603 926  0.1+  0.1-    040616 118  0.4+  0.0
    040531 J95  0.2-  0.2-    040605 926  0.5+  0.2-    040616 118  0.1-  0.4-
    040531 G90  0.1+  0.1-    040605 926  0.7+  0.5+    040616 240  0.2-  0.1-
    040531 G90  0.6-  0.1+    040605 926  0.1+  0.2+    040616 240  0.4-  0.9-
    040531 G90  0.1+  0.5+    040606 926  0.4+  0.0     040616 240  0.1+  1.6-
    040531 854  0.1-  0.1+    040606 926  0.3+  0.1+    040616 240  0.2+  1.1-
    040531 854  0.1+  0.4-    040606 926  0.8+  0.9-    040616 240  0.2-  0.5-
    040531 926  0.5+  0.5-    040606 J95  0.0   0.2+    040617 151  0.6+  0.3-
    040531 854  0.6-  0.5-    040606 J95  0.4-  0.2-    040617 151  0.7+  0.1+
    040531 926  0.0   0.2-    040606 J95  0.1-  0.7+    040617 151  0.5+  0.8+
    040531 926  0.2-  0.0     040607 G70  0.4+  0.4-    040617 151  0.3+  0.3-
    040531 734  0.2-  0.7+    040607 G70  0.1+  0.4-    040617 118  0.2+  0.0
    040531 734  1.5-  1.8-    040607 699  0.0   0.0     040617 118  0.0   0.1+
    040531 H06  0.2-  0.2+    040607 926  0.7+  0.2+    040617 118  0.3-  0.2-
    040531 H06 (0.2+  3.3-)   040607 926  0.1-  0.4-    040617 118  0.5+  0.0
    040531 734 (1.4-  2.4-)   040607 926  0.6+  0.4-    040621 246  0.1+  0.4+
    040531 H06  0.4-  0.0     040607 699 (0.6+  2.3-)   040621 246  0.1+  0.1+
    040531 704  0.5-  0.5-    040607 699  0.1-  1.3+    040621 246  0.4+  0.6+
    040531 704  0.2-  0.7+    040607 699  0.6-  1.8+    040621 246  0.3+  0.8+
    040531 704  0.2-  0.7-    040608 926  0.3-  0.5-    040623 G70  0.6+  0.0
    040531 G70  1.4-  0.6+    040608 926  0.2+  0.4+    040623 G70  1.5-  0.1+
    040531 704  0.2+  0.6+    040608 926  1.3-  0.7-    040623 G70  0.3+  0.7-
    040531 G70  0.2-  0.1+    040608 H06  0.6+  0.6+    040629 118  1.0-  0.2-
    040601 926  0.1+  0.3-    040608 H06  0.3+  0.1+    040629 118  1.6-  0.8-
    040601 926  0.6+  0.8-    040608 H06  0.0   0.3-    040703 941  0.1-  0.2-
    040601 G70  0.1-  0.0     040608 151  0.2-  0.2-    040703 941  0.1+  0.1-
    040601 G70  0.2+  0.3-    040608 151  0.4+  0.8+    040703 941  0.1+  0.1-
    040602 G70  0.4+  0.0     040608 151  0.4+  1.1+    040703 941  0.7+  0.5+
    040602 G70  0.1+  0.6+    040609 246  0.1+  0.1+    040708 941  0.4-  1.0+
    040602 G70  1.0-  0.7+    040609 246  0.2+  0.5+    040708 941  0.4-  0.4+
    040602 926  0.4+  0.2-    040609 246  0.3+  0.3+    040708 941  0.2-  0.2+
    040602 926  0.0   0.3+    040609 246  0.3-  0.3+    040708 941  0.7-  0.1+
    040602 926  0.2-  0.3+    040610 926  0.6+  0.4+    050922 413  0.1-  0.0
    040603 649  0.0   0.0     040610 926  0.1+  0.2+    050922 413  0.2+  0.1+
    040603 649  0.2-  0.1-    040610 926  0.1+  0.7-    050923 413  0.2-  0.1-
    
    Ephemeris:
    2004 KK17                a,e,i = 1.47, 0.58, 42                  q = 0.6233
    Date    TT    R. A. (2000) Decl.     Delta      r     Elong.  Phase     V
    2005 09 17    05 49.02   -46 45.7    0.998    1.415    89.9    45.3    21.0
    2005 09 27    06 23.86   -49 26.7    0.921    1.328    87.3    48.9    20.8
    2005 10 07    07 02.28   -51 51.9    0.843    1.237    83.9    53.4    20.5
    2005 10 17    07 46.37   -53 47.0    0.761    1.142    79.8    59.2    20.3
    2005 10 27    08 39.72   -54 47.1    0.675    1.044    74.7    66.7    20.1
    2005 11 06    09 47.02   -53 57.8    0.587    0.944    68.0    76.8    19.9
    
    Gareth V. Williams           (C) Copyright 2005 MPC           M.P.E.C. 2005-S34
    

    Read MPEC 2005-S33 Read MPEC 2005-S35


    MPEC number:

    Enter an MPEC number in one of the following forms:

    • 1997-B01 (the full form)
    • J97B01 (the packed version of the full form)
    • B01 (the abbreviated form)